Total_Precipitation_Accumulation
0.00 0.04 0.09 0.14 0.16 0.07 0.00 0.00 0.00 0.00 0.00 0.00 0.00 0.00 0.00 0.00 0.01 0.05 0.02 0.00 0.00 0.00 0.00 0.04 0.08 0.06 0.04 0.10 0.20 0.30 0.33 0.40 0.27 0.19 0.13 0.10 0.08 0.11 0.11 0.07 0.10 0.15 0.10 0.05 0.07 0.13 0.15 0.12 0.13
0.02 0.08 0.13 0.17 0.15 0.02 0.00 0.00 0.00 0.00 0.00 0.00 0.00 0.00 0.00 0.00 0.00 0.00 0.00 0.00 0.00 0.00 0.02 0.07 0.09 0.07 0.08 0.13 0.20 0.26 0.32 0.39 0.30 0.19 0.10 0.06 0.07 0.11 0.13 0.23 0.31 0.20 0.06 0.03 0.06 0.12 0.13 0.09 0.12
0.04 0.05 0.10 0.13 0.06 0.00 0.00 0.00 0.00 0.00 0.00 0.00 0.00 0.00 0.00 0.00 0.00 0.00 0.00 0.00 0.00 0.00 0.03 0.10 0.10 0.07 0.09 0.16 0.24 0.27 0.33 0.36 0.27 0.18 0.07 0.05 0.09 0.15 0.24 0.35 0.30 0.13 0.03 0.01 0.03 0.06 0.07 0.06 0.07
0.08 0.07 0.06 0.07 0.03 0.00 0.00 0.00 0.00 0.00 0.00 0.00 0.00 0.00 0.00 0.00 0.00 0.00 0.00 0.00 0.00 0.00 0.02 0.08 0.11 0.07 0.09 0.20 0.33 0.31 0.33 0.35 0.31 0.15 0.06 0.06 0.10 0.13 0.19 0.28 0.25 0.10 0.02 0.00 0.00 0.02 0.04 0.05 0.05
0.03 0.02 0.05 0.05 0.02 0.00 0.00 0.00 0.00 0.00 0.00 0.00 0.00 0.00 0.00 0.00 0.00 0.00 0.00 0.00 0.00 0.00 0.01 0.05 0.08 0.08 0.11 0.23 0.33 0.31 0.34 0.36 0.31 0.15 0.09 0.10 0.11 0.10 0.14 0.18 0.17 0.05 0.01 0.00 0.00 0.02 0.03 0.03 0.04
0.02 0.01 0.11 0.11 0.03 0.00 0.00 0.00 0.00 0.00 0.00 0.00 0.00 0.00 0.00 0.00 0.00 0.00 0.00 0.00 0.00 0.00 0.01 0.03 0.07 0.10 0.14 0.21 0.26 0.28 0.32 0.33 0.28 0.15 0.11 0.12 0.13 0.12 0.13 0.14 0.11 0.03 0.00 0.00 0.01 0.03 0.04 0.04 0.05
0.03 0.04 0.10 0.15 0.12 0.01 0.00 0.00 0.00 0.00 0.00 0.00 0.00 0.00 0.00 0.00 0.00 0.00 0.00 0.00 0.00 0.00 0.00 0.02 0.05 0.07 0.14 0.19 0.20 0.21 0.25 0.28 0.26 0.17 0.14 0.15 0.13 0.09 0.09 0.08 0.04 0.01 0.00 0.00 0.01 0.02 0.02 0.03 0.07
0.01 0.01 0.02 0.08 0.10 0.01 0.00 0.00 0.00 0.00 0.00 0.00 0.00 0.00 0.00 0.00 0.00 0.00 0.00 0.01 0.00 0.00 0.00 0.01 0.03 0.05 0.07 0.09 0.12 0.16 0.19 0.22 0.25 0.19 0.16 0.14 0.08 0.06 0.06 0.03 0.01 0.00 0.00 0.00 0.01 0.01 0.01 0.04 0.09
0.07 0.05 0.03 0.03 0.03 0.01 0.00 0.00 0.00 0.00 0.00 0.00 0.00 0.00 0.00 0.00 0.00 0.00 0.00 0.01 0.00 0.00 0.00 0.00 0.00 0.01 0.04 0.06 0.07 0.14 0.16 0.19 0.24 0.23 0.21 0.17 0.13 0.06 0.04 0.02 0.03 0.01 0.01 0.01 0.02 0.03 0.03 0.03 0.06
0.11 0.12 0.09 0.02 0.01 0.01 0.00 0.00 0.00 0.00 0.00 0.00 0.00 0.00 0.00 0.00 0.00 0.00 0.00 0.01 0.00 0.00 0.00 0.00 0.00 0.00 0.01 0.04 0.08 0.13 0.12 0.10 0.15 0.24 0.28 0.16 0.11 0.09 0.02 0.02 0.03 0.03 0.02 0.01 0.03 0.04 0.02 0.00 0.01
0.07 0.07 0.03 0.01 0.01 0.00 0.00 0.00 0.00 0.00 0.00 0.00 0.00 0.00 0.00 0.00 0.00 0.00 0.00 0.00 0.00 0.00 0.00 0.00 0.00 0.00 0.00 0.07 0.10 0.12 0.15 0.14 0.13 0.13 0.16 0.09 0.03 0.01 0.02 0.04 0.05 0.05 0.04 0.02 0.02 0.01 0.00 0.00 0.00
0.03 0.02 0.00 0.00 0.00 0.00 0.00 0.00 0.00 0.00 0.00 0.00 0.00 0.00 0.00 0.00 0.00 0.00 0.00 0.00 0.00 0.00 0.00 0.00 0.00 0.00 0.00 0.01 0.02 0.06 0.10 0.18 0.19 0.08 0.06 0.03 0.01 0.01 0.01 0.03 0.05 0.05 0.05 0.03 0.00 0.00 0.00 0.00 0.00
0.01 0.00 0.00 0.00 0.00 0.00 0.00 0.00 0.00 0.00 0.00 0.00 0.00 0.00 0.00 0.00 0.00 0.00 0.00 0.01 0.00 0.00 0.01 0.02 0.02 0.03 0.02 0.01 0.01 0.01 0.07 0.15 0.20 0.14 0.08 0.04 0.01 0.01 0.00 0.01 0.02 0.02 0.02 0.01 0.00 0.00 0.00 0.00 0.00
0.00 0.00 0.01 0.00 0.00 0.00 0.00 0.00 0.00 0.00 0.00 0.00 0.00 0.00 0.00 0.00 0.00 0.00 0.00 0.00 0.00 0.01 0.04 0.05 0.05 0.07 0.05 0.02 0.00 0.00 0.03 0.10 0.14 0.15 0.10 0.04 0.00 0.00 0.00 0.00 0.01 0.01 0.01 0.03 0.01 0.00 0.00 0.00 0.00
0.00 0.00 0.01 0.01 0.00 0.00 0.00 0.00 0.00 0.00 0.01 0.01 0.00 0.00 0.00 0.00 0.00 0.00 0.00 0.00 0.00 0.01 0.03 0.02 0.01 0.01 0.01 0.02 0.01 0.00 0.01 0.04 0.11 0.13 0.10 0.06 0.01 0.00 0.00 0.01 0.04 0.05 0.01 0.01 0.01 0.01 0.01 0.00 0.00
0.01 0.01 0.01 0.00 0.00 0.00 0.00 0.00 0.00 0.01 0.01 0.00 0.00 0.00 0.00 0.00 0.00 0.00 0.00 0.00 0.00 0.00 0.01 0.00 0.00 0.00 0.00 0.00 0.00 0.01 0.01 0.03 0.12 0.14 0.12 0.10 0.02 0.00 0.00 0.02 0.08 0.12 0.04 0.01 0.02 0.03 0.02 0.01 0.00
0.07 0.02 0.01 0.02 0.02 0.02 0.01 0.00 0.01 0.01 0.01 0.00 0.00 0.00 0.00 0.00 0.00 0.00 0.00 0.00 0.00 0.00 0.00 0.02 0.03 0.03 0.03 0.03 0.03 0.04 0.05 0.08 0.19 0.20 0.24 0.22 0.06 0.01 0.01 0.02 0.06 0.09 0.09 0.07 0.05 0.04 0.03 0.02 0.00
0.22 0.07 0.04 0.04 0.05 0.04 0.03 0.02 0.01 0.01 0.00 0.00 0.00 0.00 0.00 0.00 0.00 0.00 0.00 0.00 0.00 0.00 0.00 0.03 0.10 0.14 0.18 0.23 0.32 0.39 0.35 0.40 0.48 0.44 0.45 0.33 0.15 0.07 0.06 0.03 0.03 0.04 0.16 0.26 0.12 0.10 0.08 0.05 0.00
0.07 0.04 0.03 0.04 0.06 0.04 0.03 0.02 0.01 0.00 0.00 0.00 0.00 0.00 0.00 0.00 0.00 0.00 0.00 0.00 0.00 0.00 0.00 0.03 0.06 0.12 0.20 0.34 0.53 0.76 0.84 0.84 0.77 0.79 0.72 0.54 0.31 0.24 0.20 0.12 0.07 0.07 0.17 0.24 0.20 0.24 0.18 0.08 0.01
0.05 0.06 0.05 0.03 0.05 0.03 0.02 0.01 0.01 0.00 0.00 0.00 0.00 0.00 0.00 0.00 0.00 0.00 0.00 0.00 0.00 0.00 0.01 0.03 0.04 0.08 0.16 0.28 0.41 0.62 0.80 0.76 0.70 0.72 0.72 0.63 0.47 0.36 0.29 0.21 0.17 0.17 0.22 0.27 0.27 0.34 0.28 0.14 0.04
0.06 0.09 0.09 0.06 0.04 0.03 0.02 0.01 0.00 0.00 0.00 0.00 0.00 0.00 0.00 0.00 0.00 0.00 0.00 0.00 0.00 0.00 0.00 0.02 0.04 0.09 0.17 0.28 0.36 0.41 0.52 0.52 0.57 0.59 0.62 0.63 0.57 0.46 0.35 0.28 0.26 0.25 0.21 0.24 0.30 0.32 0.30 0.23 0.10
0.06 0.05 0.05 0.04 0.04 0.03 0.03 0.03 0.00 0.00 0.00 0.00 0.00 0.00 0.00 0.00 0.00 0.00 0.00 0.00 0.00 0.00 0.00 0.00 0.02 0.04 0.09 0.17 0.22 0.24 0.33 0.37 0.36 0.39 0.45 0.48 0.50 0.49 0.47 0.38 0.37 0.33 0.23 0.21 0.25 0.25 0.27 0.29 0.20
0.03 0.03 0.03 0.03 0.03 0.03 0.02 0.03 0.01 0.00 0.00 0.00 0.00 0.00 0.00 0.00 0.00 0.00 0.00 0.00 0.00 0.00 0.00 0.00 0.01 0.01 0.03 0.05 0.08 0.12 0.13 0.14 0.14 0.20 0.32 0.38 0.46 0.51 0.50 0.47 0.47 0.41 0.32 0.21 0.24 0.30 0.33 0.27 0.22
0.01 0.02 0.03 0.03 0.04 0.04 0.02 0.04 0.02 0.00 0.00 0.00 0.00 0.00 0.00 0.00 0.00 0.00 0.00 0.00 0.00 0.00 0.00 0.00 0.00 0.00 0.01 0.01 0.02 0.03 0.06 0.06 0.08 0.14 0.25 0.37 0.46 0.60 0.53 0.44 0.46 0.46 0.43 0.35 0.32 0.36 0.41 0.37 0.36
0.01 0.03 0.07 0.08 0.09 0.06 0.02 0.03 0.02 0.01 0.00 0.00 0.00 0.00 0.00 0.00 0.00 0.00 0.00 0.00 0.00 0.00 0.00 0.00 0.00 0.00 0.00 0.00 0.00 0.01 0.01 0.02 0.04 0.08 0.18 0.36 0.43 0.59 0.67 0.57 0.51 0.50 0.48 0.43 0.42 0.45 0.44 0.43 0.48
0.00 0.01 0.06 0.08 0.08 0.06 0.03 0.02 0.01 0.00 0.00 0.00 0.00 0.00 0.00 0.00 0.00 0.00 0.00 0.00 0.00 0.00 0.00 0.00 0.00 0.00 0.00 0.00 0.00 0.00 0.00 0.01 0.03 0.05 0.09 0.27 0.43 0.53 0.65 0.66 0.59 0.57 0.59 0.56 0.50 0.51 0.46 0.40 0.40
0.00 0.00 0.00 0.02 0.02 0.03 0.02 0.01 0.01 0.00 0.00 0.00 0.00 0.00 0.01 0.00 0.00 0.00 0.00 0.00 0.00 0.00 0.00 0.00 0.00 0.00 0.00 0.00 0.00 0.00 0.00 0.01 0.03 0.03 0.03 0.10 0.23 0.30 0.38 0.45 0.48 0.53 0.58 0.58 0.55 0.54 0.49 0.40 0.39
0.00 0.00 0.01 0.04 0.08 0.07 0.03 0.03 0.04 0.03 0.02 0.01 0.01 0.01 0.01 0.02 0.02 0.01 0.00 0.00 0.00 0.00 0.00 0.00 0.00 0.00 0.00 0.00 0.00 0.00 0.00 0.00 0.01 0.02 0.02 0.02 0.07 0.11 0.18 0.26 0.29 0.35 0.47 0.55 0.58 0.59 0.57 0.49 0.43
0.04 0.04 0.06 0.10 0.09 0.12 0.14 0.11 0.08 0.10 0.10 0.10 0.08 0.07 0.09 0.11 0.11 0.08 0.05 0.03 0.01 0.00 0.00 0.00 0.00 0.00 0.00 0.00 0.00 0.00 0.00 0.00 0.01 0.01 0.01 0.01 0.03 0.06 0.10 0.17 0.21 0.23 0.29 0.42 0.57 0.64 0.62 0.56 0.50
0.12 0.16 0.20 0.35 0.29 0.19 0.21 0.15 0.07 0.09 0.12 0.10 0.07 0.06 0.05 0.05 0.05 0.04 0.04 0.02 0.01 0.00 0.00 0.00 0.00 0.00 0.00 0.00 0.00 0.00 0.00 0.00 0.00 0.01 0.02 0.02 0.03 0.04 0.05 0.12 0.19 0.21 0.23 0.28 0.40 0.52 0.55 0.54 0.53